COSMOS 249 DEB *, 3790

Orbit data source: Space-Track

COSMOS 249 DEB *, 3790 is space debris in LEO originally from a launch on Sun, 20 Oct 1968 UTC launched from the Tyuratam Missile And Space Complex (TTMTR). Debris objects in space refer to the collection of defunct objects orbiting the Earth. Examples of debris include non-operational satellites, rocket bodies, and fragments generated from explosions, collisions, or faulty payload assembly.

Loading next visibility...
Identifier
3790, 1968-091AX
Orbit
LEO
Country
Flag of CISCIS
Related business
Manufacturer
Unknown
Mission
Spacecraft
Bus & Motor
Unknown
Mass
Unknown
Launch date (UTC)
1968-10-20 (58 years ago)
Launch vehicle
Unknown
Launch site
Tyuratam Missile And Space Complex (TTMTR)
Object type
Payload
Rocket body
Debris
Shape & HBR
Unknown shape, 0.1 m
Radar Cross Section
Small (<0.1 m²)

Expand to show TLE details & history
Last TLE update: 7 hours ago

TLE from 7 hours ago
0 COSMOS 249 DEB *
1 03790U 68091AX  26126.21700681  .00001060  00000-0  46246-3 0  9997
2 03790  62.9963  59.0892 0710473 312.1815  42.0919 13.40648446761854
Epoch: 2026-05-06T05:12Z
TLE epoch observation values (Epoch: 2026-05-06T05:12:29.388Z)
Latitude
0.00001°
Longitude
116.88608°
Altitude
732.357 km
Speed
7.675 km/s
True Right ascension
03h 56m 21s
True Declination
0° 00' 00"
Sunlit
Object was in daylight at epoch
Visualization orbit readout
Latitude
Unknown
Longitude
Unknown
Altitude
Unknown
Speed
Unknown
Apparent Right ascension
Unknown
Apparent Declination
Unknown
Sunlit
N/A
Visualization observer readout
Local Sidereal Time
20:28:44
Azimuth
Unknown
Elevation
Unknown
Doppler factor
Unknown
Orbital elements
Apogee altitude
1,637.448 km
Perigee altitude
574.029 km
Semi-major axis
7,483.875 km
Eccentricity
0.07105
Inclination
62.9963°
RAAN
59.0892°
Arg. of periapsis
312.1815°
True anomaly
47.92296°
Mean anomaly
42.0919°
Eccentric anomaly
44.96876°
Mean motion
3.35238 °/min
Orbital period
107.39 mins
BSTAR
0.00046246
Loading maneuver chart data...
Computing Atmospheric mass density...

Documentation

Showing up to 5 results
|